<?xml version="1.0"?>
<gpx xmlns="http://www.topografix.com/GPX/1/1" xmlns:xsi="http://www.w3.org/2001/XMLSchema-instance" version="1.1" creator="GPX RubyGem 1.0.0 -- http://dougfales.github.io/gpx/" xsi:schemaLocation="http://www.topografix.com/GPX/1/1 http://www.topografix.com/GPX/1/1/gpx.xsd">
  <metadata>
    <name/>
    <time>2026-05-08T04:48:18+00:00</time>
    <bound minlat="90.0" minlon="180.0" maxlat="-90.0" maxlon="-180.0"/>
  </metadata>
  <trk>
    <name/>
    <trkseg>
      <trkpt lat="44.480883" lon="9.119406">
        <time>1970-01-01T00:00:00+00:00</time>
        <ele>681.0</ele>
      </trkpt>
      <trkpt lat="44.480771" lon="9.119688">
        <time>1970-01-01T00:00:00+00:00</time>
        <ele>689.0</ele>
      </trkpt>
      <trkpt lat="44.480929" lon="9.119802">
        <time>1970-01-01T00:00:00+00:00</time>
        <ele>687.0</ele>
      </trkpt>
      <trkpt lat="44.481018" lon="9.119866">
        <time>1970-01-01T00:00:00+00:00</time>
        <ele>686.0</ele>
      </trkpt>
      <trkpt lat="44.481235" lon="9.120137">
        <time>1970-01-01T00:00:00+00:00</time>
        <ele>683.0</ele>
      </trkpt>
      <trkpt lat="44.481452" lon="9.120481">
        <time>1970-01-01T00:00:00+00:00</time>
        <ele>670.0</ele>
      </trkpt>
      <trkpt lat="44.481475" lon="9.12063">
        <time>1970-01-01T00:00:00+00:00</time>
        <ele>669.0</ele>
      </trkpt>
      <trkpt lat="44.481435" lon="9.120745">
        <time>1970-01-01T00:00:00+00:00</time>
        <ele>668.0</ele>
      </trkpt>
      <trkpt lat="44.48127" lon="9.120871">
        <time>1970-01-01T00:00:00+00:00</time>
        <ele>671.0</ele>
      </trkpt>
      <trkpt lat="44.48106" lon="9.120987">
        <time>1970-01-01T00:00:00+00:00</time>
        <ele>676.0</ele>
      </trkpt>
      <trkpt lat="44.480755" lon="9.121244">
        <time>1970-01-01T00:00:00+00:00</time>
        <ele>690.0</ele>
      </trkpt>
      <trkpt lat="44.480731" lon="9.121297">
        <time>1970-01-01T00:00:00+00:00</time>
        <ele>691.0</ele>
      </trkpt>
      <trkpt lat="44.48073" lon="9.121358">
        <time>1970-01-01T00:00:00+00:00</time>
        <ele>691.0</ele>
      </trkpt>
      <trkpt lat="44.480765" lon="9.121453">
        <time>1970-01-01T00:00:00+00:00</time>
        <ele>693.0</ele>
      </trkpt>
      <trkpt lat="44.480799" lon="9.121481">
        <time>1970-01-01T00:00:00+00:00</time>
        <ele>692.0</ele>
      </trkpt>
      <trkpt lat="44.480765" lon="9.121622">
        <time>1970-01-01T00:00:00+00:00</time>
        <ele>698.0</ele>
      </trkpt>
      <trkpt lat="44.480774" lon="9.121683">
        <time>1970-01-01T00:00:00+00:00</time>
        <ele>700.0</ele>
      </trkpt>
      <trkpt lat="44.480857" lon="9.121726">
        <time>1970-01-01T00:00:00+00:00</time>
        <ele>699.0</ele>
      </trkpt>
      <trkpt lat="44.481086" lon="9.121771">
        <time>1970-01-01T00:00:00+00:00</time>
        <ele>695.0</ele>
      </trkpt>
      <trkpt lat="44.481314" lon="9.121969">
        <time>1970-01-01T00:00:00+00:00</time>
        <ele>697.0</ele>
      </trkpt>
      <trkpt lat="44.481372" lon="9.122083">
        <time>1970-01-01T00:00:00+00:00</time>
        <ele>698.0</ele>
      </trkpt>
      <trkpt lat="44.481395" lon="9.122225">
        <time>1970-01-01T00:00:00+00:00</time>
        <ele>702.0</ele>
      </trkpt>
      <trkpt lat="44.481397" lon="9.12235">
        <time>1970-01-01T00:00:00+00:00</time>
        <ele>705.0</ele>
      </trkpt>
      <trkpt lat="44.481532" lon="9.123047">
        <time>1970-01-01T00:00:00+00:00</time>
        <ele>703.0</ele>
      </trkpt>
      <trkpt lat="44.481538" lon="9.123479">
        <time>1970-01-01T00:00:00+00:00</time>
        <ele>703.0</ele>
      </trkpt>
      <trkpt lat="44.481373" lon="9.12382">
        <time>1970-01-01T00:00:00+00:00</time>
        <ele>713.0</ele>
      </trkpt>
      <trkpt lat="44.481397" lon="9.124069">
        <time>1970-01-01T00:00:00+00:00</time>
        <ele>715.0</ele>
      </trkpt>
      <trkpt lat="44.481607" lon="9.124373">
        <time>1970-01-01T00:00:00+00:00</time>
        <ele>717.0</ele>
      </trkpt>
      <trkpt lat="44.481921" lon="9.124616">
        <time>1970-01-01T00:00:00+00:00</time>
        <ele>719.0</ele>
      </trkpt>
      <trkpt lat="44.481989" lon="9.124689">
        <time>1970-01-01T00:00:00+00:00</time>
        <ele>718.0</ele>
      </trkpt>
      <trkpt lat="44.482072" lon="9.124907">
        <time>1970-01-01T00:00:00+00:00</time>
        <ele>718.0</ele>
      </trkpt>
      <trkpt lat="44.48222" lon="9.125048">
        <time>1970-01-01T00:00:00+00:00</time>
        <ele>713.0</ele>
      </trkpt>
      <trkpt lat="44.482323" lon="9.125203">
        <time>1970-01-01T00:00:00+00:00</time>
        <ele>709.0</ele>
      </trkpt>
      <trkpt lat="44.482436" lon="9.125421">
        <time>1970-01-01T00:00:00+00:00</time>
        <ele>703.0</ele>
      </trkpt>
      <trkpt lat="44.482442" lon="9.125455">
        <time>1970-01-01T00:00:00+00:00</time>
        <ele>702.0</ele>
      </trkpt>
      <trkpt lat="44.482421" lon="9.125498">
        <time>1970-01-01T00:00:00+00:00</time>
        <ele>701.0</ele>
      </trkpt>
      <trkpt lat="44.482384" lon="9.125498">
        <time>1970-01-01T00:00:00+00:00</time>
        <ele>702.0</ele>
      </trkpt>
      <trkpt lat="44.482322" lon="9.12539">
        <time>1970-01-01T00:00:00+00:00</time>
        <ele>707.0</ele>
      </trkpt>
      <trkpt lat="44.482159" lon="9.125185">
        <time>1970-01-01T00:00:00+00:00</time>
        <ele>713.0</ele>
      </trkpt>
      <trkpt lat="44.481835" lon="9.124908">
        <time>1970-01-01T00:00:00+00:00</time>
        <ele>724.0</ele>
      </trkpt>
      <trkpt lat="44.481762" lon="9.124869">
        <time>1970-01-01T00:00:00+00:00</time>
        <ele>725.0</ele>
      </trkpt>
      <trkpt lat="44.481606" lon="9.124843">
        <time>1970-01-01T00:00:00+00:00</time>
        <ele>727.0</ele>
      </trkpt>
      <trkpt lat="44.481455" lon="9.124789">
        <time>1970-01-01T00:00:00+00:00</time>
        <ele>729.0</ele>
      </trkpt>
      <trkpt lat="44.481209" lon="9.124792">
        <time>1970-01-01T00:00:00+00:00</time>
        <ele>733.0</ele>
      </trkpt>
      <trkpt lat="44.481103" lon="9.124746">
        <time>1970-01-01T00:00:00+00:00</time>
        <ele>734.0</ele>
      </trkpt>
      <trkpt lat="44.480834" lon="9.124545">
        <time>1970-01-01T00:00:00+00:00</time>
        <ele>742.0</ele>
      </trkpt>
      <trkpt lat="44.480788" lon="9.124568">
        <time>1970-01-01T00:00:00+00:00</time>
        <ele>745.0</ele>
      </trkpt>
      <trkpt lat="44.480792" lon="9.124636">
        <time>1970-01-01T00:00:00+00:00</time>
        <ele>745.0</ele>
      </trkpt>
      <trkpt lat="44.480846" lon="9.124693">
        <time>1970-01-01T00:00:00+00:00</time>
        <ele>742.0</ele>
      </trkpt>
      <trkpt lat="44.481212" lon="9.124989">
        <time>1970-01-01T00:00:00+00:00</time>
        <ele>732.0</ele>
      </trkpt>
      <trkpt lat="44.481746" lon="9.12527">
        <time>1970-01-01T00:00:00+00:00</time>
        <ele>721.0</ele>
      </trkpt>
      <trkpt lat="44.481769" lon="9.125329">
        <time>1970-01-01T00:00:00+00:00</time>
        <ele>719.0</ele>
      </trkpt>
      <trkpt lat="44.481757" lon="9.125381">
        <time>1970-01-01T00:00:00+00:00</time>
        <ele>718.0</ele>
      </trkpt>
      <trkpt lat="44.481736" lon="9.125403">
        <time>1970-01-01T00:00:00+00:00</time>
        <ele>718.0</ele>
      </trkpt>
      <trkpt lat="44.481698" lon="9.125405">
        <time>1970-01-01T00:00:00+00:00</time>
        <ele>718.0</ele>
      </trkpt>
      <trkpt lat="44.481543" lon="9.125373">
        <time>1970-01-01T00:00:00+00:00</time>
        <ele>721.0</ele>
      </trkpt>
      <trkpt lat="44.481228" lon="9.125449">
        <time>1970-01-01T00:00:00+00:00</time>
        <ele>724.0</ele>
      </trkpt>
      <trkpt lat="44.480979" lon="9.125417">
        <time>1970-01-01T00:00:00+00:00</time>
        <ele>730.0</ele>
      </trkpt>
      <trkpt lat="44.480862" lon="9.125475">
        <time>1970-01-01T00:00:00+00:00</time>
        <ele>732.0</ele>
      </trkpt>
      <trkpt lat="44.48068" lon="9.125618">
        <time>1970-01-01T00:00:00+00:00</time>
        <ele>735.0</ele>
      </trkpt>
      <trkpt lat="44.480348" lon="9.125724">
        <time>1970-01-01T00:00:00+00:00</time>
        <ele>745.0</ele>
      </trkpt>
      <trkpt lat="44.480261" lon="9.125776">
        <time>1970-01-01T00:00:00+00:00</time>
        <ele>749.0</ele>
      </trkpt>
      <trkpt lat="44.480043" lon="9.126092">
        <time>1970-01-01T00:00:00+00:00</time>
        <ele>756.0</ele>
      </trkpt>
      <trkpt lat="44.479798" lon="9.126803">
        <time>1970-01-01T00:00:00+00:00</time>
        <ele>754.0</ele>
      </trkpt>
      <trkpt lat="44.47965" lon="9.127123">
        <time>1970-01-01T00:00:00+00:00</time>
        <ele>760.0</ele>
      </trkpt>
      <trkpt lat="44.479606" lon="9.127166">
        <time>1970-01-01T00:00:00+00:00</time>
        <ele>761.0</ele>
      </trkpt>
      <trkpt lat="44.479466" lon="9.127236">
        <time>1970-01-01T00:00:00+00:00</time>
        <ele>763.0</ele>
      </trkpt>
      <trkpt lat="44.479233" lon="9.127429">
        <time>1970-01-01T00:00:00+00:00</time>
        <ele>771.0</ele>
      </trkpt>
      <trkpt lat="44.479134" lon="9.127561">
        <time>1970-01-01T00:00:00+00:00</time>
        <ele>775.0</ele>
      </trkpt>
      <trkpt lat="44.4791" lon="9.127645">
        <time>1970-01-01T00:00:00+00:00</time>
        <ele>778.0</ele>
      </trkpt>
      <trkpt lat="44.479088" lon="9.127748">
        <time>1970-01-01T00:00:00+00:00</time>
        <ele>781.0</ele>
      </trkpt>
      <trkpt lat="44.479116" lon="9.127834">
        <time>1970-01-01T00:00:00+00:00</time>
        <ele>781.0</ele>
      </trkpt>
      <trkpt lat="44.479187" lon="9.127952">
        <time>1970-01-01T00:00:00+00:00</time>
        <ele>782.0</ele>
      </trkpt>
      <trkpt lat="44.479239" lon="9.127974">
        <time>1970-01-01T00:00:00+00:00</time>
        <ele>782.0</ele>
      </trkpt>
      <trkpt lat="44.479452" lon="9.12798">
        <time>1970-01-01T00:00:00+00:00</time>
        <ele>781.0</ele>
      </trkpt>
      <trkpt lat="44.479623" lon="9.128036">
        <time>1970-01-01T00:00:00+00:00</time>
        <ele>779.0</ele>
      </trkpt>
      <trkpt lat="44.479717" lon="9.128108">
        <time>1970-01-01T00:00:00+00:00</time>
        <ele>779.0</ele>
      </trkpt>
      <trkpt lat="44.479742" lon="9.128171">
        <time>1970-01-01T00:00:00+00:00</time>
        <ele>780.0</ele>
      </trkpt>
      <trkpt lat="44.479734" lon="9.128428">
        <time>1970-01-01T00:00:00+00:00</time>
        <ele>784.0</ele>
      </trkpt>
      <trkpt lat="44.479747" lon="9.128516">
        <time>1970-01-01T00:00:00+00:00</time>
        <ele>785.0</ele>
      </trkpt>
      <trkpt lat="44.479801" lon="9.128565">
        <time>1970-01-01T00:00:00+00:00</time>
        <ele>785.0</ele>
      </trkpt>
      <trkpt lat="44.479907" lon="9.12858">
        <time>1970-01-01T00:00:00+00:00</time>
        <ele>784.0</ele>
      </trkpt>
      <trkpt lat="44.479973" lon="9.128611">
        <time>1970-01-01T00:00:00+00:00</time>
        <ele>783.0</ele>
      </trkpt>
      <trkpt lat="44.480005" lon="9.128699">
        <time>1970-01-01T00:00:00+00:00</time>
        <ele>784.0</ele>
      </trkpt>
      <trkpt lat="44.480034" lon="9.128924">
        <time>1970-01-01T00:00:00+00:00</time>
        <ele>787.0</ele>
      </trkpt>
      <trkpt lat="44.480154" lon="9.128995">
        <time>1970-01-01T00:00:00+00:00</time>
        <ele>787.0</ele>
      </trkpt>
      <trkpt lat="44.480319" lon="9.128956">
        <time>1970-01-01T00:00:00+00:00</time>
        <ele>783.0</ele>
      </trkpt>
      <trkpt lat="44.480426" lon="9.128981">
        <time>1970-01-01T00:00:00+00:00</time>
        <ele>781.0</ele>
      </trkpt>
      <trkpt lat="44.480613" lon="9.129086">
        <time>1970-01-01T00:00:00+00:00</time>
        <ele>782.0</ele>
      </trkpt>
      <trkpt lat="44.480733" lon="9.129122">
        <time>1970-01-01T00:00:00+00:00</time>
        <ele>782.0</ele>
      </trkpt>
      <trkpt lat="44.480919" lon="9.129144">
        <time>1970-01-01T00:00:00+00:00</time>
        <ele>783.0</ele>
      </trkpt>
      <trkpt lat="44.481069" lon="9.129189">
        <time>1970-01-01T00:00:00+00:00</time>
        <ele>784.0</ele>
      </trkpt>
      <trkpt lat="44.48118" lon="9.129171">
        <time>1970-01-01T00:00:00+00:00</time>
        <ele>783.0</ele>
      </trkpt>
      <trkpt lat="44.481203" lon="9.129147">
        <time>1970-01-01T00:00:00+00:00</time>
        <ele>783.0</ele>
      </trkpt>
      <trkpt lat="44.481315" lon="9.129186">
        <time>1970-01-01T00:00:00+00:00</time>
        <ele>782.0</ele>
      </trkpt>
      <trkpt lat="44.481363" lon="9.129303">
        <time>1970-01-01T00:00:00+00:00</time>
        <ele>781.0</ele>
      </trkpt>
      <trkpt lat="44.481319" lon="9.129373">
        <time>1970-01-01T00:00:00+00:00</time>
        <ele>782.0</ele>
      </trkpt>
      <trkpt lat="44.481301" lon="9.129533">
        <time>1970-01-01T00:00:00+00:00</time>
        <ele>780.0</ele>
      </trkpt>
      <trkpt lat="44.481203" lon="9.129609">
        <time>1970-01-01T00:00:00+00:00</time>
        <ele>781.0</ele>
      </trkpt>
      <trkpt lat="44.481159" lon="9.129693">
        <time>1970-01-01T00:00:00+00:00</time>
        <ele>780.0</ele>
      </trkpt>
      <trkpt lat="44.481082" lon="9.129775">
        <time>1970-01-01T00:00:00+00:00</time>
        <ele>779.0</ele>
      </trkpt>
      <trkpt lat="44.480903" lon="9.129816">
        <time>1970-01-01T00:00:00+00:00</time>
        <ele>783.0</ele>
      </trkpt>
      <trkpt lat="44.480612" lon="9.129979">
        <time>1970-01-01T00:00:00+00:00</time>
        <ele>789.0</ele>
      </trkpt>
      <trkpt lat="44.480331" lon="9.130236">
        <time>1970-01-01T00:00:00+00:00</time>
        <ele>799.0</ele>
      </trkpt>
      <trkpt lat="44.480065" lon="9.130329">
        <time>1970-01-01T00:00:00+00:00</time>
        <ele>812.0</ele>
      </trkpt>
      <trkpt lat="44.479963" lon="9.130343">
        <time>1970-01-01T00:00:00+00:00</time>
        <ele>815.0</ele>
      </trkpt>
      <trkpt lat="44.47988" lon="9.130396">
        <time>1970-01-01T00:00:00+00:00</time>
        <ele>817.0</ele>
      </trkpt>
      <trkpt lat="44.479795" lon="9.130492">
        <time>1970-01-01T00:00:00+00:00</time>
        <ele>819.0</ele>
      </trkpt>
      <trkpt lat="44.479745" lon="9.130603">
        <time>1970-01-01T00:00:00+00:00</time>
        <ele>821.0</ele>
      </trkpt>
      <trkpt lat="44.479757" lon="9.130743">
        <time>1970-01-01T00:00:00+00:00</time>
        <ele>820.0</ele>
      </trkpt>
      <trkpt lat="44.479633" lon="9.130891">
        <time>1970-01-01T00:00:00+00:00</time>
        <ele>825.0</ele>
      </trkpt>
      <trkpt lat="44.479635" lon="9.131005">
        <time>1970-01-01T00:00:00+00:00</time>
        <ele>824.0</ele>
      </trkpt>
      <trkpt lat="44.479682" lon="9.131133">
        <time>1970-01-01T00:00:00+00:00</time>
        <ele>823.0</ele>
      </trkpt>
      <trkpt lat="44.479651" lon="9.131206">
        <time>1970-01-01T00:00:00+00:00</time>
        <ele>824.0</ele>
      </trkpt>
      <trkpt lat="44.479603" lon="9.131544">
        <time>1970-01-01T00:00:00+00:00</time>
        <ele>828.0</ele>
      </trkpt>
      <trkpt lat="44.479533" lon="9.131745">
        <time>1970-01-01T00:00:00+00:00</time>
        <ele>833.0</ele>
      </trkpt>
      <trkpt lat="44.479481" lon="9.132019">
        <time>1970-01-01T00:00:00+00:00</time>
        <ele>837.0</ele>
      </trkpt>
      <trkpt lat="44.479489" lon="9.132145">
        <time>1970-01-01T00:00:00+00:00</time>
        <ele>838.0</ele>
      </trkpt>
      <trkpt lat="44.479545" lon="9.132238">
        <time>1970-01-01T00:00:00+00:00</time>
        <ele>840.0</ele>
      </trkpt>
      <trkpt lat="44.479739" lon="9.132247">
        <time>1970-01-01T00:00:00+00:00</time>
        <ele>835.0</ele>
      </trkpt>
      <trkpt lat="44.479855" lon="9.132326">
        <time>1970-01-01T00:00:00+00:00</time>
        <ele>833.0</ele>
      </trkpt>
      <trkpt lat="44.479915" lon="9.132448">
        <time>1970-01-01T00:00:00+00:00</time>
        <ele>835.0</ele>
      </trkpt>
      <trkpt lat="44.479978" lon="9.132462">
        <time>1970-01-01T00:00:00+00:00</time>
        <ele>833.0</ele>
      </trkpt>
      <trkpt lat="44.479988" lon="9.132546">
        <time>1970-01-01T00:00:00+00:00</time>
        <ele>836.0</ele>
      </trkpt>
      <trkpt lat="44.480045" lon="9.132651">
        <time>1970-01-01T00:00:00+00:00</time>
        <ele>838.0</ele>
      </trkpt>
      <trkpt lat="44.480257" lon="9.132987">
        <time>1970-01-01T00:00:00+00:00</time>
        <ele>835.0</ele>
      </trkpt>
      <trkpt lat="44.480351" lon="9.133107">
        <time>1970-01-01T00:00:00+00:00</time>
        <ele>832.0</ele>
      </trkpt>
      <trkpt lat="44.480475" lon="9.133356">
        <time>1970-01-01T00:00:00+00:00</time>
        <ele>826.0</ele>
      </trkpt>
      <trkpt lat="44.480491" lon="9.133562">
        <time>1970-01-01T00:00:00+00:00</time>
        <ele>824.0</ele>
      </trkpt>
      <trkpt lat="44.480466" lon="9.133689">
        <time>1970-01-01T00:00:00+00:00</time>
        <ele>823.0</ele>
      </trkpt>
      <trkpt lat="44.480243" lon="9.134123">
        <time>1970-01-01T00:00:00+00:00</time>
        <ele>832.0</ele>
      </trkpt>
      <trkpt lat="44.480119" lon="9.134485">
        <time>1970-01-01T00:00:00+00:00</time>
        <ele>835.0</ele>
      </trkpt>
      <trkpt lat="44.479941" lon="9.134837">
        <time>1970-01-01T00:00:00+00:00</time>
        <ele>838.0</ele>
      </trkpt>
      <trkpt lat="44.479866" lon="9.134894">
        <time>1970-01-01T00:00:00+00:00</time>
        <ele>842.0</ele>
      </trkpt>
      <trkpt lat="44.479816" lon="9.134996">
        <time>1970-01-01T00:00:00+00:00</time>
        <ele>845.0</ele>
      </trkpt>
      <trkpt lat="44.479812" lon="9.135074">
        <time>1970-01-01T00:00:00+00:00</time>
        <ele>845.0</ele>
      </trkpt>
      <trkpt lat="44.479872" lon="9.135283">
        <time>1970-01-01T00:00:00+00:00</time>
        <ele>841.0</ele>
      </trkpt>
      <trkpt lat="44.479859" lon="9.135473">
        <time>1970-01-01T00:00:00+00:00</time>
        <ele>842.0</ele>
      </trkpt>
      <trkpt lat="44.479722" lon="9.136078">
        <time>1970-01-01T00:00:00+00:00</time>
        <ele>846.0</ele>
      </trkpt>
      <trkpt lat="44.479597" lon="9.136435">
        <time>1970-01-01T00:00:00+00:00</time>
        <ele>847.0</ele>
      </trkpt>
      <trkpt lat="44.479581" lon="9.136633">
        <time>1970-01-01T00:00:00+00:00</time>
        <ele>848.0</ele>
      </trkpt>
      <trkpt lat="44.479545" lon="9.13679">
        <time>1970-01-01T00:00:00+00:00</time>
        <ele>845.0</ele>
      </trkpt>
      <trkpt lat="44.479628" lon="9.136904">
        <time>1970-01-01T00:00:00+00:00</time>
        <ele>844.0</ele>
      </trkpt>
      <trkpt lat="44.479678" lon="9.137062">
        <time>1970-01-01T00:00:00+00:00</time>
        <ele>841.0</ele>
      </trkpt>
      <trkpt lat="44.479668" lon="9.137538">
        <time>1970-01-01T00:00:00+00:00</time>
        <ele>828.0</ele>
      </trkpt>
      <trkpt lat="44.47989" lon="9.137936">
        <time>1970-01-01T00:00:00+00:00</time>
        <ele>835.0</ele>
      </trkpt>
      <trkpt lat="44.480041" lon="9.138259">
        <time>1970-01-01T00:00:00+00:00</time>
        <ele>839.0</ele>
      </trkpt>
      <trkpt lat="44.480055" lon="9.138387">
        <time>1970-01-01T00:00:00+00:00</time>
        <ele>837.0</ele>
      </trkpt>
      <trkpt lat="44.480139" lon="9.138499">
        <time>1970-01-01T00:00:00+00:00</time>
        <ele>840.0</ele>
      </trkpt>
      <trkpt lat="44.480226" lon="9.138661">
        <time>1970-01-01T00:00:00+00:00</time>
        <ele>842.0</ele>
      </trkpt>
      <trkpt lat="44.480252" lon="9.138851">
        <time>1970-01-01T00:00:00+00:00</time>
        <ele>839.0</ele>
      </trkpt>
      <trkpt lat="44.480422" lon="9.139123">
        <time>1970-01-01T00:00:00+00:00</time>
        <ele>840.0</ele>
      </trkpt>
      <trkpt lat="44.48084" lon="9.13944">
        <time>1970-01-01T00:00:00+00:00</time>
        <ele>850.0</ele>
      </trkpt>
      <trkpt lat="44.480867" lon="9.13948">
        <time>1970-01-01T00:00:00+00:00</time>
        <ele>850.0</ele>
      </trkpt>
      <trkpt lat="44.481" lon="9.139502">
        <time>1970-01-01T00:00:00+00:00</time>
        <ele>860.0</ele>
      </trkpt>
      <trkpt lat="44.481064" lon="9.139608">
        <time>1970-01-01T00:00:00+00:00</time>
        <ele>862.0</ele>
      </trkpt>
      <trkpt lat="44.481258" lon="9.139667">
        <time>1970-01-01T00:00:00+00:00</time>
        <ele>871.0</ele>
      </trkpt>
      <trkpt lat="44.481303" lon="9.139725">
        <time>1970-01-01T00:00:00+00:00</time>
        <ele>870.0</ele>
      </trkpt>
      <trkpt lat="44.481631" lon="9.1403">
        <time>1970-01-01T00:00:00+00:00</time>
        <ele>868.0</ele>
      </trkpt>
      <trkpt lat="44.481693" lon="9.140437">
        <time>1970-01-01T00:00:00+00:00</time>
        <ele>866.0</ele>
      </trkpt>
      <trkpt lat="44.481763" lon="9.140523">
        <time>1970-01-01T00:00:00+00:00</time>
        <ele>866.0</ele>
      </trkpt>
      <trkpt lat="44.481848" lon="9.14073">
        <time>1970-01-01T00:00:00+00:00</time>
        <ele>862.0</ele>
      </trkpt>
      <trkpt lat="44.481863" lon="9.140866">
        <time>1970-01-01T00:00:00+00:00</time>
        <ele>859.0</ele>
      </trkpt>
      <trkpt lat="44.482014" lon="9.141419">
        <time>1970-01-01T00:00:00+00:00</time>
        <ele>856.0</ele>
      </trkpt>
      <trkpt lat="44.482105" lon="9.141523">
        <time>1970-01-01T00:00:00+00:00</time>
        <ele>860.0</ele>
      </trkpt>
      <trkpt lat="44.48222" lon="9.141709">
        <time>1970-01-01T00:00:00+00:00</time>
        <ele>864.0</ele>
      </trkpt>
      <trkpt lat="44.482435" lon="9.141974">
        <time>1970-01-01T00:00:00+00:00</time>
        <ele>868.0</ele>
      </trkpt>
      <trkpt lat="44.48254" lon="9.142398">
        <time>1970-01-01T00:00:00+00:00</time>
        <ele>867.0</ele>
      </trkpt>
      <trkpt lat="44.482497" lon="9.142785">
        <time>1970-01-01T00:00:00+00:00</time>
        <ele>859.0</ele>
      </trkpt>
      <trkpt lat="44.482526" lon="9.143038">
        <time>1970-01-01T00:00:00+00:00</time>
        <ele>858.0</ele>
      </trkpt>
      <trkpt lat="44.482578" lon="9.143318">
        <time>1970-01-01T00:00:00+00:00</time>
        <ele>858.0</ele>
      </trkpt>
      <trkpt lat="44.482578" lon="9.143544">
        <time>1970-01-01T00:00:00+00:00</time>
        <ele>856.0</ele>
      </trkpt>
      <trkpt lat="44.48276" lon="9.144118">
        <time>1970-01-01T00:00:00+00:00</time>
        <ele>857.0</ele>
      </trkpt>
      <trkpt lat="44.482851" lon="9.144301">
        <time>1970-01-01T00:00:00+00:00</time>
        <ele>859.0</ele>
      </trkpt>
      <trkpt lat="44.482898" lon="9.144515">
        <time>1970-01-01T00:00:00+00:00</time>
        <ele>858.0</ele>
      </trkpt>
      <trkpt lat="44.48291" lon="9.144773">
        <time>1970-01-01T00:00:00+00:00</time>
        <ele>855.0</ele>
      </trkpt>
      <trkpt lat="44.483095" lon="9.145441">
        <time>1970-01-01T00:00:00+00:00</time>
        <ele>860.0</ele>
      </trkpt>
      <trkpt lat="44.483167" lon="9.145511">
        <time>1970-01-01T00:00:00+00:00</time>
        <ele>864.0</ele>
      </trkpt>
      <trkpt lat="44.483221" lon="9.145599">
        <time>1970-01-01T00:00:00+00:00</time>
        <ele>866.0</ele>
      </trkpt>
      <trkpt lat="44.483226" lon="9.145722">
        <time>1970-01-01T00:00:00+00:00</time>
        <ele>866.0</ele>
      </trkpt>
      <trkpt lat="44.483204" lon="9.145847">
        <time>1970-01-01T00:00:00+00:00</time>
        <ele>865.0</ele>
      </trkpt>
      <trkpt lat="44.483206" lon="9.14596">
        <time>1970-01-01T00:00:00+00:00</time>
        <ele>864.0</ele>
      </trkpt>
      <trkpt lat="44.483379" lon="9.14628">
        <time>1970-01-01T00:00:00+00:00</time>
        <ele>869.0</ele>
      </trkpt>
      <trkpt lat="44.483494" lon="9.146408">
        <time>1970-01-01T00:00:00+00:00</time>
        <ele>873.0</ele>
      </trkpt>
      <trkpt lat="44.483598" lon="9.146696">
        <time>1970-01-01T00:00:00+00:00</time>
        <ele>874.0</ele>
      </trkpt>
      <trkpt lat="44.483711" lon="9.146953">
        <time>1970-01-01T00:00:00+00:00</time>
        <ele>877.0</ele>
      </trkpt>
      <trkpt lat="44.48381" lon="9.147022">
        <time>1970-01-01T00:00:00+00:00</time>
        <ele>880.0</ele>
      </trkpt>
      <trkpt lat="44.483861" lon="9.14712">
        <time>1970-01-01T00:00:00+00:00</time>
        <ele>881.0</ele>
      </trkpt>
      <trkpt lat="44.483931" lon="9.147173">
        <time>1970-01-01T00:00:00+00:00</time>
        <ele>883.0</ele>
      </trkpt>
      <trkpt lat="44.484323" lon="9.147354">
        <time>1970-01-01T00:00:00+00:00</time>
        <ele>902.0</ele>
      </trkpt>
      <trkpt lat="44.484354" lon="9.14742">
        <time>1970-01-01T00:00:00+00:00</time>
        <ele>903.0</ele>
      </trkpt>
      <trkpt lat="44.484331" lon="9.148056">
        <time>1970-01-01T00:00:00+00:00</time>
        <ele>906.0</ele>
      </trkpt>
      <trkpt lat="44.484373" lon="9.148996">
        <time>1970-01-01T00:00:00+00:00</time>
        <ele>919.0</ele>
      </trkpt>
      <trkpt lat="44.48434" lon="9.149185">
        <time>1970-01-01T00:00:00+00:00</time>
        <ele>920.0</ele>
      </trkpt>
      <trkpt lat="44.48434" lon="9.149317">
        <time>1970-01-01T00:00:00+00:00</time>
        <ele>922.0</ele>
      </trkpt>
      <trkpt lat="44.484369" lon="9.149549">
        <time>1970-01-01T00:00:00+00:00</time>
        <ele>925.0</ele>
      </trkpt>
      <trkpt lat="44.484358" lon="9.149643">
        <time>1970-01-01T00:00:00+00:00</time>
        <ele>927.0</ele>
      </trkpt>
      <trkpt lat="44.484277" lon="9.149875">
        <time>1970-01-01T00:00:00+00:00</time>
        <ele>927.0</ele>
      </trkpt>
      <trkpt lat="44.484266" lon="9.150102">
        <time>1970-01-01T00:00:00+00:00</time>
        <ele>930.0</ele>
      </trkpt>
      <trkpt lat="44.484296" lon="9.150244">
        <time>1970-01-01T00:00:00+00:00</time>
        <ele>934.0</ele>
      </trkpt>
      <trkpt lat="44.484352" lon="9.150359">
        <time>1970-01-01T00:00:00+00:00</time>
        <ele>938.0</ele>
      </trkpt>
      <trkpt lat="44.484446" lon="9.150497">
        <time>1970-01-01T00:00:00+00:00</time>
        <ele>943.0</ele>
      </trkpt>
      <trkpt lat="44.484443" lon="9.150608">
        <time>1970-01-01T00:00:00+00:00</time>
        <ele>946.0</ele>
      </trkpt>
      <trkpt lat="44.48451" lon="9.150829">
        <time>1970-01-01T00:00:00+00:00</time>
        <ele>951.0</ele>
      </trkpt>
      <trkpt lat="44.484658" lon="9.151024">
        <time>1970-01-01T00:00:00+00:00</time>
        <ele>956.0</ele>
      </trkpt>
      <trkpt lat="44.484806" lon="9.151375">
        <time>1970-01-01T00:00:00+00:00</time>
        <ele>957.0</ele>
      </trkpt>
      <trkpt lat="44.484883" lon="9.151469">
        <time>1970-01-01T00:00:00+00:00</time>
        <ele>959.0</ele>
      </trkpt>
      <trkpt lat="44.484953" lon="9.151604">
        <time>1970-01-01T00:00:00+00:00</time>
        <ele>959.0</ele>
      </trkpt>
      <trkpt lat="44.485071" lon="9.151735">
        <time>1970-01-01T00:00:00+00:00</time>
        <ele>960.0</ele>
      </trkpt>
      <trkpt lat="44.485174" lon="9.151788">
        <time>1970-01-01T00:00:00+00:00</time>
        <ele>963.0</ele>
      </trkpt>
      <trkpt lat="44.485305" lon="9.151965">
        <time>1970-01-01T00:00:00+00:00</time>
        <ele>967.0</ele>
      </trkpt>
      <trkpt lat="44.485405" lon="9.152016">
        <time>1970-01-01T00:00:00+00:00</time>
        <ele>972.0</ele>
      </trkpt>
      <trkpt lat="44.485513" lon="9.152173">
        <time>1970-01-01T00:00:00+00:00</time>
        <ele>976.0</ele>
      </trkpt>
      <trkpt lat="44.485721" lon="9.152605">
        <time>1970-01-01T00:00:00+00:00</time>
        <ele>985.0</ele>
      </trkpt>
      <trkpt lat="44.485866" lon="9.152793">
        <time>1970-01-01T00:00:00+00:00</time>
        <ele>992.0</ele>
      </trkpt>
      <trkpt lat="44.4859" lon="9.153052">
        <time>1970-01-01T00:00:00+00:00</time>
        <ele>986.0</ele>
      </trkpt>
      <trkpt lat="44.486005" lon="9.153608">
        <time>1970-01-01T00:00:00+00:00</time>
        <ele>974.0</ele>
      </trkpt>
      <trkpt lat="44.486062" lon="9.153769">
        <time>1970-01-01T00:00:00+00:00</time>
        <ele>976.0</ele>
      </trkpt>
      <trkpt lat="44.486219" lon="9.154027">
        <time>1970-01-01T00:00:00+00:00</time>
        <ele>982.0</ele>
      </trkpt>
      <trkpt lat="44.48629" lon="9.154218">
        <time>1970-01-01T00:00:00+00:00</time>
        <ele>982.0</ele>
      </trkpt>
      <trkpt lat="44.486324" lon="9.154367">
        <time>1970-01-01T00:00:00+00:00</time>
        <ele>981.0</ele>
      </trkpt>
      <trkpt lat="44.486325" lon="9.154489">
        <time>1970-01-01T00:00:00+00:00</time>
        <ele>979.0</ele>
      </trkpt>
      <trkpt lat="44.486398" lon="9.154754">
        <time>1970-01-01T00:00:00+00:00</time>
        <ele>974.0</ele>
      </trkpt>
      <trkpt lat="44.48661" lon="9.155247">
        <time>1970-01-01T00:00:00+00:00</time>
        <ele>973.0</ele>
      </trkpt>
      <trkpt lat="44.486769" lon="9.155562">
        <time>1970-01-01T00:00:00+00:00</time>
        <ele>970.0</ele>
      </trkpt>
      <trkpt lat="44.487327" lon="9.156572">
        <time>1970-01-01T00:00:00+00:00</time>
        <ele>1000.0</ele>
      </trkpt>
      <trkpt lat="44.487359" lon="9.156697">
        <time>1970-01-01T00:00:00+00:00</time>
        <ele>1004.0</ele>
      </trkpt>
      <trkpt lat="44.487342" lon="9.156914">
        <time>1970-01-01T00:00:00+00:00</time>
        <ele>1005.0</ele>
      </trkpt>
      <trkpt lat="44.487359" lon="9.156997">
        <time>1970-01-01T00:00:00+00:00</time>
        <ele>1007.0</ele>
      </trkpt>
      <trkpt lat="44.487355" lon="9.157429">
        <time>1970-01-01T00:00:00+00:00</time>
        <ele>1010.0</ele>
      </trkpt>
      <trkpt lat="44.487484" lon="9.157745">
        <time>1970-01-01T00:00:00+00:00</time>
        <ele>1019.0</ele>
      </trkpt>
      <trkpt lat="44.487653" lon="9.157804">
        <time>1970-01-01T00:00:00+00:00</time>
        <ele>1028.0</ele>
      </trkpt>
      <trkpt lat="44.487898" lon="9.158276">
        <time>1970-01-01T00:00:00+00:00</time>
        <ele>1045.0</ele>
      </trkpt>
      <trkpt lat="44.488252" lon="9.158535">
        <time>1970-01-01T00:00:00+00:00</time>
        <ele>1067.0</ele>
      </trkpt>
      <trkpt lat="44.488379" lon="9.158602">
        <time>1970-01-01T00:00:00+00:00</time>
        <ele>1072.0</ele>
      </trkpt>
      <trkpt lat="44.488426" lon="9.158661">
        <time>1970-01-01T00:00:00+00:00</time>
        <ele>1074.0</ele>
      </trkpt>
      <trkpt lat="44.488428" lon="9.158731">
        <time>1970-01-01T00:00:00+00:00</time>
        <ele>1075.0</ele>
      </trkpt>
      <trkpt lat="44.488268" lon="9.159051">
        <time>1970-01-01T00:00:00+00:00</time>
        <ele>1080.0</ele>
      </trkpt>
      <trkpt lat="44.488173" lon="9.159532">
        <time>1970-01-01T00:00:00+00:00</time>
        <ele>1079.0</ele>
      </trkpt>
      <trkpt lat="44.488165" lon="9.15961">
        <time>1970-01-01T00:00:00+00:00</time>
        <ele>1078.0</ele>
      </trkpt>
      <trkpt lat="44.488165" lon="9.15961">
        <time>1970-01-01T00:00:00+00:00</time>
        <ele>1078.0</ele>
      </trkpt>
      <trkpt lat="44.488173" lon="9.159532">
        <time>1970-01-01T00:00:00+00:00</time>
        <ele>1079.0</ele>
      </trkpt>
      <trkpt lat="44.488268" lon="9.159051">
        <time>1970-01-01T00:00:00+00:00</time>
        <ele>1080.0</ele>
      </trkpt>
      <trkpt lat="44.488428" lon="9.158731">
        <time>1970-01-01T00:00:00+00:00</time>
        <ele>1075.0</ele>
      </trkpt>
      <trkpt lat="44.488426" lon="9.158661">
        <time>1970-01-01T00:00:00+00:00</time>
        <ele>1074.0</ele>
      </trkpt>
      <trkpt lat="44.488379" lon="9.158602">
        <time>1970-01-01T00:00:00+00:00</time>
        <ele>1072.0</ele>
      </trkpt>
      <trkpt lat="44.488252" lon="9.158535">
        <time>1970-01-01T00:00:00+00:00</time>
        <ele>1067.0</ele>
      </trkpt>
      <trkpt lat="44.487898" lon="9.158276">
        <time>1970-01-01T00:00:00+00:00</time>
        <ele>1045.0</ele>
      </trkpt>
      <trkpt lat="44.487653" lon="9.157804">
        <time>1970-01-01T00:00:00+00:00</time>
        <ele>1028.0</ele>
      </trkpt>
      <trkpt lat="44.487484" lon="9.157745">
        <time>1970-01-01T00:00:00+00:00</time>
        <ele>1019.0</ele>
      </trkpt>
      <trkpt lat="44.487355" lon="9.157429">
        <time>1970-01-01T00:00:00+00:00</time>
        <ele>1010.0</ele>
      </trkpt>
      <trkpt lat="44.487359" lon="9.156997">
        <time>1970-01-01T00:00:00+00:00</time>
        <ele>1007.0</ele>
      </trkpt>
      <trkpt lat="44.487342" lon="9.156914">
        <time>1970-01-01T00:00:00+00:00</time>
        <ele>1005.0</ele>
      </trkpt>
      <trkpt lat="44.487359" lon="9.156697">
        <time>1970-01-01T00:00:00+00:00</time>
        <ele>1004.0</ele>
      </trkpt>
      <trkpt lat="44.487327" lon="9.156572">
        <time>1970-01-01T00:00:00+00:00</time>
        <ele>1000.0</ele>
      </trkpt>
      <trkpt lat="44.486769" lon="9.155562">
        <time>1970-01-01T00:00:00+00:00</time>
        <ele>970.0</ele>
      </trkpt>
      <trkpt lat="44.48661" lon="9.155247">
        <time>1970-01-01T00:00:00+00:00</time>
        <ele>973.0</ele>
      </trkpt>
      <trkpt lat="44.486398" lon="9.154754">
        <time>1970-01-01T00:00:00+00:00</time>
        <ele>974.0</ele>
      </trkpt>
      <trkpt lat="44.486325" lon="9.154489">
        <time>1970-01-01T00:00:00+00:00</time>
        <ele>979.0</ele>
      </trkpt>
      <trkpt lat="44.486324" lon="9.154367">
        <time>1970-01-01T00:00:00+00:00</time>
        <ele>981.0</ele>
      </trkpt>
      <trkpt lat="44.48629" lon="9.154218">
        <time>1970-01-01T00:00:00+00:00</time>
        <ele>982.0</ele>
      </trkpt>
      <trkpt lat="44.486219" lon="9.154027">
        <time>1970-01-01T00:00:00+00:00</time>
        <ele>982.0</ele>
      </trkpt>
      <trkpt lat="44.486062" lon="9.153769">
        <time>1970-01-01T00:00:00+00:00</time>
        <ele>976.0</ele>
      </trkpt>
      <trkpt lat="44.486005" lon="9.153608">
        <time>1970-01-01T00:00:00+00:00</time>
        <ele>974.0</ele>
      </trkpt>
      <trkpt lat="44.4859" lon="9.153052">
        <time>1970-01-01T00:00:00+00:00</time>
        <ele>986.0</ele>
      </trkpt>
      <trkpt lat="44.485866" lon="9.152793">
        <time>1970-01-01T00:00:00+00:00</time>
        <ele>992.0</ele>
      </trkpt>
      <trkpt lat="44.485721" lon="9.152605">
        <time>1970-01-01T00:00:00+00:00</time>
        <ele>985.0</ele>
      </trkpt>
      <trkpt lat="44.485513" lon="9.152173">
        <time>1970-01-01T00:00:00+00:00</time>
        <ele>976.0</ele>
      </trkpt>
      <trkpt lat="44.485405" lon="9.152016">
        <time>1970-01-01T00:00:00+00:00</time>
        <ele>972.0</ele>
      </trkpt>
      <trkpt lat="44.485305" lon="9.151965">
        <time>1970-01-01T00:00:00+00:00</time>
        <ele>967.0</ele>
      </trkpt>
      <trkpt lat="44.485174" lon="9.151788">
        <time>1970-01-01T00:00:00+00:00</time>
        <ele>963.0</ele>
      </trkpt>
      <trkpt lat="44.485071" lon="9.151735">
        <time>1970-01-01T00:00:00+00:00</time>
        <ele>960.0</ele>
      </trkpt>
      <trkpt lat="44.484953" lon="9.151604">
        <time>1970-01-01T00:00:00+00:00</time>
        <ele>959.0</ele>
      </trkpt>
      <trkpt lat="44.484883" lon="9.151469">
        <time>1970-01-01T00:00:00+00:00</time>
        <ele>959.0</ele>
      </trkpt>
      <trkpt lat="44.484806" lon="9.151375">
        <time>1970-01-01T00:00:00+00:00</time>
        <ele>957.0</ele>
      </trkpt>
      <trkpt lat="44.484658" lon="9.151024">
        <time>1970-01-01T00:00:00+00:00</time>
        <ele>956.0</ele>
      </trkpt>
      <trkpt lat="44.48451" lon="9.150829">
        <time>1970-01-01T00:00:00+00:00</time>
        <ele>951.0</ele>
      </trkpt>
      <trkpt lat="44.484443" lon="9.150608">
        <time>1970-01-01T00:00:00+00:00</time>
        <ele>946.0</ele>
      </trkpt>
      <trkpt lat="44.484446" lon="9.150497">
        <time>1970-01-01T00:00:00+00:00</time>
        <ele>943.0</ele>
      </trkpt>
      <trkpt lat="44.484352" lon="9.150359">
        <time>1970-01-01T00:00:00+00:00</time>
        <ele>938.0</ele>
      </trkpt>
      <trkpt lat="44.484296" lon="9.150244">
        <time>1970-01-01T00:00:00+00:00</time>
        <ele>934.0</ele>
      </trkpt>
      <trkpt lat="44.484266" lon="9.150102">
        <time>1970-01-01T00:00:00+00:00</time>
        <ele>930.0</ele>
      </trkpt>
      <trkpt lat="44.484277" lon="9.149875">
        <time>1970-01-01T00:00:00+00:00</time>
        <ele>927.0</ele>
      </trkpt>
      <trkpt lat="44.484358" lon="9.149643">
        <time>1970-01-01T00:00:00+00:00</time>
        <ele>927.0</ele>
      </trkpt>
      <trkpt lat="44.484369" lon="9.149549">
        <time>1970-01-01T00:00:00+00:00</time>
        <ele>925.0</ele>
      </trkpt>
      <trkpt lat="44.48434" lon="9.149317">
        <time>1970-01-01T00:00:00+00:00</time>
        <ele>922.0</ele>
      </trkpt>
      <trkpt lat="44.48434" lon="9.149185">
        <time>1970-01-01T00:00:00+00:00</time>
        <ele>920.0</ele>
      </trkpt>
      <trkpt lat="44.484373" lon="9.148996">
        <time>1970-01-01T00:00:00+00:00</time>
        <ele>919.0</ele>
      </trkpt>
      <trkpt lat="44.484331" lon="9.148056">
        <time>1970-01-01T00:00:00+00:00</time>
        <ele>906.0</ele>
      </trkpt>
      <trkpt lat="44.484354" lon="9.14742">
        <time>1970-01-01T00:00:00+00:00</time>
        <ele>903.0</ele>
      </trkpt>
      <trkpt lat="44.484323" lon="9.147354">
        <time>1970-01-01T00:00:00+00:00</time>
        <ele>902.0</ele>
      </trkpt>
      <trkpt lat="44.483931" lon="9.147173">
        <time>1970-01-01T00:00:00+00:00</time>
        <ele>883.0</ele>
      </trkpt>
      <trkpt lat="44.483861" lon="9.14712">
        <time>1970-01-01T00:00:00+00:00</time>
        <ele>881.0</ele>
      </trkpt>
      <trkpt lat="44.48381" lon="9.147022">
        <time>1970-01-01T00:00:00+00:00</time>
        <ele>880.0</ele>
      </trkpt>
      <trkpt lat="44.483711" lon="9.146953">
        <time>1970-01-01T00:00:00+00:00</time>
        <ele>877.0</ele>
      </trkpt>
      <trkpt lat="44.483598" lon="9.146696">
        <time>1970-01-01T00:00:00+00:00</time>
        <ele>874.0</ele>
      </trkpt>
      <trkpt lat="44.483494" lon="9.146408">
        <time>1970-01-01T00:00:00+00:00</time>
        <ele>873.0</ele>
      </trkpt>
      <trkpt lat="44.483379" lon="9.14628">
        <time>1970-01-01T00:00:00+00:00</time>
        <ele>869.0</ele>
      </trkpt>
      <trkpt lat="44.483206" lon="9.14596">
        <time>1970-01-01T00:00:00+00:00</time>
        <ele>864.0</ele>
      </trkpt>
      <trkpt lat="44.483204" lon="9.145847">
        <time>1970-01-01T00:00:00+00:00</time>
        <ele>865.0</ele>
      </trkpt>
      <trkpt lat="44.483226" lon="9.145722">
        <time>1970-01-01T00:00:00+00:00</time>
        <ele>866.0</ele>
      </trkpt>
      <trkpt lat="44.483221" lon="9.145599">
        <time>1970-01-01T00:00:00+00:00</time>
        <ele>866.0</ele>
      </trkpt>
      <trkpt lat="44.483167" lon="9.145511">
        <time>1970-01-01T00:00:00+00:00</time>
        <ele>864.0</ele>
      </trkpt>
      <trkpt lat="44.483095" lon="9.145441">
        <time>1970-01-01T00:00:00+00:00</time>
        <ele>860.0</ele>
      </trkpt>
      <trkpt lat="44.48291" lon="9.144773">
        <time>1970-01-01T00:00:00+00:00</time>
        <ele>855.0</ele>
      </trkpt>
      <trkpt lat="44.482898" lon="9.144515">
        <time>1970-01-01T00:00:00+00:00</time>
        <ele>858.0</ele>
      </trkpt>
      <trkpt lat="44.482851" lon="9.144301">
        <time>1970-01-01T00:00:00+00:00</time>
        <ele>859.0</ele>
      </trkpt>
      <trkpt lat="44.48276" lon="9.144118">
        <time>1970-01-01T00:00:00+00:00</time>
        <ele>857.0</ele>
      </trkpt>
      <trkpt lat="44.482578" lon="9.143544">
        <time>1970-01-01T00:00:00+00:00</time>
        <ele>856.0</ele>
      </trkpt>
      <trkpt lat="44.482578" lon="9.143318">
        <time>1970-01-01T00:00:00+00:00</time>
        <ele>858.0</ele>
      </trkpt>
      <trkpt lat="44.482526" lon="9.143038">
        <time>1970-01-01T00:00:00+00:00</time>
        <ele>858.0</ele>
      </trkpt>
      <trkpt lat="44.482497" lon="9.142785">
        <time>1970-01-01T00:00:00+00:00</time>
        <ele>859.0</ele>
      </trkpt>
      <trkpt lat="44.48254" lon="9.142398">
        <time>1970-01-01T00:00:00+00:00</time>
        <ele>867.0</ele>
      </trkpt>
      <trkpt lat="44.482435" lon="9.141974">
        <time>1970-01-01T00:00:00+00:00</time>
        <ele>868.0</ele>
      </trkpt>
      <trkpt lat="44.48222" lon="9.141709">
        <time>1970-01-01T00:00:00+00:00</time>
        <ele>864.0</ele>
      </trkpt>
      <trkpt lat="44.482105" lon="9.141523">
        <time>1970-01-01T00:00:00+00:00</time>
        <ele>860.0</ele>
      </trkpt>
      <trkpt lat="44.482014" lon="9.141419">
        <time>1970-01-01T00:00:00+00:00</time>
        <ele>856.0</ele>
      </trkpt>
      <trkpt lat="44.481863" lon="9.140866">
        <time>1970-01-01T00:00:00+00:00</time>
        <ele>859.0</ele>
      </trkpt>
      <trkpt lat="44.481848" lon="9.14073">
        <time>1970-01-01T00:00:00+00:00</time>
        <ele>862.0</ele>
      </trkpt>
      <trkpt lat="44.481763" lon="9.140523">
        <time>1970-01-01T00:00:00+00:00</time>
        <ele>866.0</ele>
      </trkpt>
      <trkpt lat="44.481693" lon="9.140437">
        <time>1970-01-01T00:00:00+00:00</time>
        <ele>866.0</ele>
      </trkpt>
      <trkpt lat="44.481631" lon="9.1403">
        <time>1970-01-01T00:00:00+00:00</time>
        <ele>868.0</ele>
      </trkpt>
      <trkpt lat="44.481303" lon="9.139725">
        <time>1970-01-01T00:00:00+00:00</time>
        <ele>870.0</ele>
      </trkpt>
      <trkpt lat="44.481258" lon="9.139667">
        <time>1970-01-01T00:00:00+00:00</time>
        <ele>871.0</ele>
      </trkpt>
      <trkpt lat="44.481064" lon="9.139608">
        <time>1970-01-01T00:00:00+00:00</time>
        <ele>862.0</ele>
      </trkpt>
      <trkpt lat="44.481" lon="9.139502">
        <time>1970-01-01T00:00:00+00:00</time>
        <ele>860.0</ele>
      </trkpt>
      <trkpt lat="44.480867" lon="9.13948">
        <time>1970-01-01T00:00:00+00:00</time>
        <ele>850.0</ele>
      </trkpt>
      <trkpt lat="44.48084" lon="9.13944">
        <time>1970-01-01T00:00:00+00:00</time>
        <ele>850.0</ele>
      </trkpt>
      <trkpt lat="44.480422" lon="9.139123">
        <time>1970-01-01T00:00:00+00:00</time>
        <ele>840.0</ele>
      </trkpt>
      <trkpt lat="44.480252" lon="9.138851">
        <time>1970-01-01T00:00:00+00:00</time>
        <ele>839.0</ele>
      </trkpt>
      <trkpt lat="44.480226" lon="9.138661">
        <time>1970-01-01T00:00:00+00:00</time>
        <ele>842.0</ele>
      </trkpt>
      <trkpt lat="44.480139" lon="9.138499">
        <time>1970-01-01T00:00:00+00:00</time>
        <ele>840.0</ele>
      </trkpt>
      <trkpt lat="44.480055" lon="9.138387">
        <time>1970-01-01T00:00:00+00:00</time>
        <ele>837.0</ele>
      </trkpt>
      <trkpt lat="44.480041" lon="9.138259">
        <time>1970-01-01T00:00:00+00:00</time>
        <ele>839.0</ele>
      </trkpt>
      <trkpt lat="44.47989" lon="9.137936">
        <time>1970-01-01T00:00:00+00:00</time>
        <ele>835.0</ele>
      </trkpt>
      <trkpt lat="44.479668" lon="9.137538">
        <time>1970-01-01T00:00:00+00:00</time>
        <ele>828.0</ele>
      </trkpt>
      <trkpt lat="44.479678" lon="9.137062">
        <time>1970-01-01T00:00:00+00:00</time>
        <ele>841.0</ele>
      </trkpt>
      <trkpt lat="44.479628" lon="9.136904">
        <time>1970-01-01T00:00:00+00:00</time>
        <ele>844.0</ele>
      </trkpt>
      <trkpt lat="44.479545" lon="9.13679">
        <time>1970-01-01T00:00:00+00:00</time>
        <ele>845.0</ele>
      </trkpt>
      <trkpt lat="44.479581" lon="9.136633">
        <time>1970-01-01T00:00:00+00:00</time>
        <ele>848.0</ele>
      </trkpt>
      <trkpt lat="44.479597" lon="9.136435">
        <time>1970-01-01T00:00:00+00:00</time>
        <ele>847.0</ele>
      </trkpt>
      <trkpt lat="44.479722" lon="9.136078">
        <time>1970-01-01T00:00:00+00:00</time>
        <ele>846.0</ele>
      </trkpt>
      <trkpt lat="44.479859" lon="9.135473">
        <time>1970-01-01T00:00:00+00:00</time>
        <ele>842.0</ele>
      </trkpt>
      <trkpt lat="44.479872" lon="9.135283">
        <time>1970-01-01T00:00:00+00:00</time>
        <ele>841.0</ele>
      </trkpt>
      <trkpt lat="44.479812" lon="9.135074">
        <time>1970-01-01T00:00:00+00:00</time>
        <ele>845.0</ele>
      </trkpt>
      <trkpt lat="44.479816" lon="9.134996">
        <time>1970-01-01T00:00:00+00:00</time>
        <ele>845.0</ele>
      </trkpt>
      <trkpt lat="44.479866" lon="9.134894">
        <time>1970-01-01T00:00:00+00:00</time>
        <ele>842.0</ele>
      </trkpt>
      <trkpt lat="44.479941" lon="9.134837">
        <time>1970-01-01T00:00:00+00:00</time>
        <ele>838.0</ele>
      </trkpt>
      <trkpt lat="44.480119" lon="9.134485">
        <time>1970-01-01T00:00:00+00:00</time>
        <ele>835.0</ele>
      </trkpt>
      <trkpt lat="44.480243" lon="9.134123">
        <time>1970-01-01T00:00:00+00:00</time>
        <ele>832.0</ele>
      </trkpt>
      <trkpt lat="44.480466" lon="9.133689">
        <time>1970-01-01T00:00:00+00:00</time>
        <ele>823.0</ele>
      </trkpt>
      <trkpt lat="44.480491" lon="9.133562">
        <time>1970-01-01T00:00:00+00:00</time>
        <ele>824.0</ele>
      </trkpt>
      <trkpt lat="44.480475" lon="9.133356">
        <time>1970-01-01T00:00:00+00:00</time>
        <ele>826.0</ele>
      </trkpt>
      <trkpt lat="44.480351" lon="9.133107">
        <time>1970-01-01T00:00:00+00:00</time>
        <ele>832.0</ele>
      </trkpt>
      <trkpt lat="44.480257" lon="9.132987">
        <time>1970-01-01T00:00:00+00:00</time>
        <ele>835.0</ele>
      </trkpt>
      <trkpt lat="44.480045" lon="9.132651">
        <time>1970-01-01T00:00:00+00:00</time>
        <ele>838.0</ele>
      </trkpt>
      <trkpt lat="44.479988" lon="9.132546">
        <time>1970-01-01T00:00:00+00:00</time>
        <ele>836.0</ele>
      </trkpt>
      <trkpt lat="44.479978" lon="9.132462">
        <time>1970-01-01T00:00:00+00:00</time>
        <ele>833.0</ele>
      </trkpt>
      <trkpt lat="44.479915" lon="9.132448">
        <time>1970-01-01T00:00:00+00:00</time>
        <ele>835.0</ele>
      </trkpt>
      <trkpt lat="44.479855" lon="9.132326">
        <time>1970-01-01T00:00:00+00:00</time>
        <ele>833.0</ele>
      </trkpt>
      <trkpt lat="44.479739" lon="9.132247">
        <time>1970-01-01T00:00:00+00:00</time>
        <ele>835.0</ele>
      </trkpt>
      <trkpt lat="44.479545" lon="9.132238">
        <time>1970-01-01T00:00:00+00:00</time>
        <ele>840.0</ele>
      </trkpt>
      <trkpt lat="44.479489" lon="9.132145">
        <time>1970-01-01T00:00:00+00:00</time>
        <ele>838.0</ele>
      </trkpt>
      <trkpt lat="44.479481" lon="9.132019">
        <time>1970-01-01T00:00:00+00:00</time>
        <ele>837.0</ele>
      </trkpt>
      <trkpt lat="44.479533" lon="9.131745">
        <time>1970-01-01T00:00:00+00:00</time>
        <ele>833.0</ele>
      </trkpt>
      <trkpt lat="44.479603" lon="9.131544">
        <time>1970-01-01T00:00:00+00:00</time>
        <ele>828.0</ele>
      </trkpt>
      <trkpt lat="44.479651" lon="9.131206">
        <time>1970-01-01T00:00:00+00:00</time>
        <ele>824.0</ele>
      </trkpt>
      <trkpt lat="44.479682" lon="9.131133">
        <time>1970-01-01T00:00:00+00:00</time>
        <ele>823.0</ele>
      </trkpt>
      <trkpt lat="44.479635" lon="9.131005">
        <time>1970-01-01T00:00:00+00:00</time>
        <ele>824.0</ele>
      </trkpt>
      <trkpt lat="44.479633" lon="9.130891">
        <time>1970-01-01T00:00:00+00:00</time>
        <ele>825.0</ele>
      </trkpt>
      <trkpt lat="44.479757" lon="9.130743">
        <time>1970-01-01T00:00:00+00:00</time>
        <ele>820.0</ele>
      </trkpt>
      <trkpt lat="44.479745" lon="9.130603">
        <time>1970-01-01T00:00:00+00:00</time>
        <ele>821.0</ele>
      </trkpt>
      <trkpt lat="44.479795" lon="9.130492">
        <time>1970-01-01T00:00:00+00:00</time>
        <ele>819.0</ele>
      </trkpt>
      <trkpt lat="44.47988" lon="9.130396">
        <time>1970-01-01T00:00:00+00:00</time>
        <ele>817.0</ele>
      </trkpt>
      <trkpt lat="44.479963" lon="9.130343">
        <time>1970-01-01T00:00:00+00:00</time>
        <ele>815.0</ele>
      </trkpt>
      <trkpt lat="44.480065" lon="9.130329">
        <time>1970-01-01T00:00:00+00:00</time>
        <ele>812.0</ele>
      </trkpt>
      <trkpt lat="44.480331" lon="9.130236">
        <time>1970-01-01T00:00:00+00:00</time>
        <ele>799.0</ele>
      </trkpt>
      <trkpt lat="44.480612" lon="9.129979">
        <time>1970-01-01T00:00:00+00:00</time>
        <ele>789.0</ele>
      </trkpt>
      <trkpt lat="44.480903" lon="9.129816">
        <time>1970-01-01T00:00:00+00:00</time>
        <ele>783.0</ele>
      </trkpt>
      <trkpt lat="44.481082" lon="9.129775">
        <time>1970-01-01T00:00:00+00:00</time>
        <ele>779.0</ele>
      </trkpt>
      <trkpt lat="44.481159" lon="9.129693">
        <time>1970-01-01T00:00:00+00:00</time>
        <ele>780.0</ele>
      </trkpt>
      <trkpt lat="44.481203" lon="9.129609">
        <time>1970-01-01T00:00:00+00:00</time>
        <ele>781.0</ele>
      </trkpt>
      <trkpt lat="44.481301" lon="9.129533">
        <time>1970-01-01T00:00:00+00:00</time>
        <ele>780.0</ele>
      </trkpt>
      <trkpt lat="44.481319" lon="9.129373">
        <time>1970-01-01T00:00:00+00:00</time>
        <ele>782.0</ele>
      </trkpt>
      <trkpt lat="44.481363" lon="9.129303">
        <time>1970-01-01T00:00:00+00:00</time>
        <ele>781.0</ele>
      </trkpt>
      <trkpt lat="44.481315" lon="9.129186">
        <time>1970-01-01T00:00:00+00:00</time>
        <ele>782.0</ele>
      </trkpt>
      <trkpt lat="44.481203" lon="9.129147">
        <time>1970-01-01T00:00:00+00:00</time>
        <ele>783.0</ele>
      </trkpt>
      <trkpt lat="44.48118" lon="9.129171">
        <time>1970-01-01T00:00:00+00:00</time>
        <ele>783.0</ele>
      </trkpt>
      <trkpt lat="44.481069" lon="9.129189">
        <time>1970-01-01T00:00:00+00:00</time>
        <ele>784.0</ele>
      </trkpt>
      <trkpt lat="44.480919" lon="9.129144">
        <time>1970-01-01T00:00:00+00:00</time>
        <ele>783.0</ele>
      </trkpt>
      <trkpt lat="44.480733" lon="9.129122">
        <time>1970-01-01T00:00:00+00:00</time>
        <ele>782.0</ele>
      </trkpt>
      <trkpt lat="44.480613" lon="9.129086">
        <time>1970-01-01T00:00:00+00:00</time>
        <ele>782.0</ele>
      </trkpt>
      <trkpt lat="44.480426" lon="9.128981">
        <time>1970-01-01T00:00:00+00:00</time>
        <ele>781.0</ele>
      </trkpt>
      <trkpt lat="44.480319" lon="9.128956">
        <time>1970-01-01T00:00:00+00:00</time>
        <ele>783.0</ele>
      </trkpt>
      <trkpt lat="44.480154" lon="9.128995">
        <time>1970-01-01T00:00:00+00:00</time>
        <ele>787.0</ele>
      </trkpt>
      <trkpt lat="44.480034" lon="9.128924">
        <time>1970-01-01T00:00:00+00:00</time>
        <ele>787.0</ele>
      </trkpt>
      <trkpt lat="44.480005" lon="9.128699">
        <time>1970-01-01T00:00:00+00:00</time>
        <ele>784.0</ele>
      </trkpt>
      <trkpt lat="44.479973" lon="9.128611">
        <time>1970-01-01T00:00:00+00:00</time>
        <ele>783.0</ele>
      </trkpt>
      <trkpt lat="44.479907" lon="9.12858">
        <time>1970-01-01T00:00:00+00:00</time>
        <ele>784.0</ele>
      </trkpt>
      <trkpt lat="44.479801" lon="9.128565">
        <time>1970-01-01T00:00:00+00:00</time>
        <ele>785.0</ele>
      </trkpt>
      <trkpt lat="44.479747" lon="9.128516">
        <time>1970-01-01T00:00:00+00:00</time>
        <ele>785.0</ele>
      </trkpt>
      <trkpt lat="44.479734" lon="9.128428">
        <time>1970-01-01T00:00:00+00:00</time>
        <ele>784.0</ele>
      </trkpt>
      <trkpt lat="44.479742" lon="9.128171">
        <time>1970-01-01T00:00:00+00:00</time>
        <ele>780.0</ele>
      </trkpt>
      <trkpt lat="44.479717" lon="9.128108">
        <time>1970-01-01T00:00:00+00:00</time>
        <ele>779.0</ele>
      </trkpt>
      <trkpt lat="44.479623" lon="9.128036">
        <time>1970-01-01T00:00:00+00:00</time>
        <ele>779.0</ele>
      </trkpt>
      <trkpt lat="44.479452" lon="9.12798">
        <time>1970-01-01T00:00:00+00:00</time>
        <ele>781.0</ele>
      </trkpt>
      <trkpt lat="44.479239" lon="9.127974">
        <time>1970-01-01T00:00:00+00:00</time>
        <ele>782.0</ele>
      </trkpt>
      <trkpt lat="44.479187" lon="9.127952">
        <time>1970-01-01T00:00:00+00:00</time>
        <ele>782.0</ele>
      </trkpt>
      <trkpt lat="44.479116" lon="9.127834">
        <time>1970-01-01T00:00:00+00:00</time>
        <ele>781.0</ele>
      </trkpt>
      <trkpt lat="44.479088" lon="9.127748">
        <time>1970-01-01T00:00:00+00:00</time>
        <ele>781.0</ele>
      </trkpt>
      <trkpt lat="44.4791" lon="9.127645">
        <time>1970-01-01T00:00:00+00:00</time>
        <ele>778.0</ele>
      </trkpt>
      <trkpt lat="44.479134" lon="9.127561">
        <time>1970-01-01T00:00:00+00:00</time>
        <ele>775.0</ele>
      </trkpt>
      <trkpt lat="44.479233" lon="9.127429">
        <time>1970-01-01T00:00:00+00:00</time>
        <ele>771.0</ele>
      </trkpt>
      <trkpt lat="44.479466" lon="9.127236">
        <time>1970-01-01T00:00:00+00:00</time>
        <ele>763.0</ele>
      </trkpt>
      <trkpt lat="44.479606" lon="9.127166">
        <time>1970-01-01T00:00:00+00:00</time>
        <ele>761.0</ele>
      </trkpt>
      <trkpt lat="44.47965" lon="9.127123">
        <time>1970-01-01T00:00:00+00:00</time>
        <ele>760.0</ele>
      </trkpt>
      <trkpt lat="44.479798" lon="9.126803">
        <time>1970-01-01T00:00:00+00:00</time>
        <ele>754.0</ele>
      </trkpt>
      <trkpt lat="44.480043" lon="9.126092">
        <time>1970-01-01T00:00:00+00:00</time>
        <ele>756.0</ele>
      </trkpt>
      <trkpt lat="44.480261" lon="9.125776">
        <time>1970-01-01T00:00:00+00:00</time>
        <ele>749.0</ele>
      </trkpt>
      <trkpt lat="44.480348" lon="9.125724">
        <time>1970-01-01T00:00:00+00:00</time>
        <ele>745.0</ele>
      </trkpt>
      <trkpt lat="44.48068" lon="9.125618">
        <time>1970-01-01T00:00:00+00:00</time>
        <ele>735.0</ele>
      </trkpt>
      <trkpt lat="44.480862" lon="9.125475">
        <time>1970-01-01T00:00:00+00:00</time>
        <ele>732.0</ele>
      </trkpt>
      <trkpt lat="44.480979" lon="9.125417">
        <time>1970-01-01T00:00:00+00:00</time>
        <ele>730.0</ele>
      </trkpt>
      <trkpt lat="44.481228" lon="9.125449">
        <time>1970-01-01T00:00:00+00:00</time>
        <ele>724.0</ele>
      </trkpt>
      <trkpt lat="44.481543" lon="9.125373">
        <time>1970-01-01T00:00:00+00:00</time>
        <ele>721.0</ele>
      </trkpt>
      <trkpt lat="44.481698" lon="9.125405">
        <time>1970-01-01T00:00:00+00:00</time>
        <ele>718.0</ele>
      </trkpt>
      <trkpt lat="44.481736" lon="9.125403">
        <time>1970-01-01T00:00:00+00:00</time>
        <ele>718.0</ele>
      </trkpt>
      <trkpt lat="44.481757" lon="9.125381">
        <time>1970-01-01T00:00:00+00:00</time>
        <ele>718.0</ele>
      </trkpt>
      <trkpt lat="44.481769" lon="9.125329">
        <time>1970-01-01T00:00:00+00:00</time>
        <ele>719.0</ele>
      </trkpt>
      <trkpt lat="44.481746" lon="9.12527">
        <time>1970-01-01T00:00:00+00:00</time>
        <ele>721.0</ele>
      </trkpt>
      <trkpt lat="44.481212" lon="9.124989">
        <time>1970-01-01T00:00:00+00:00</time>
        <ele>732.0</ele>
      </trkpt>
      <trkpt lat="44.480846" lon="9.124693">
        <time>1970-01-01T00:00:00+00:00</time>
        <ele>742.0</ele>
      </trkpt>
      <trkpt lat="44.480792" lon="9.124636">
        <time>1970-01-01T00:00:00+00:00</time>
        <ele>745.0</ele>
      </trkpt>
      <trkpt lat="44.480788" lon="9.124568">
        <time>1970-01-01T00:00:00+00:00</time>
        <ele>745.0</ele>
      </trkpt>
      <trkpt lat="44.480834" lon="9.124545">
        <time>1970-01-01T00:00:00+00:00</time>
        <ele>742.0</ele>
      </trkpt>
      <trkpt lat="44.481103" lon="9.124746">
        <time>1970-01-01T00:00:00+00:00</time>
        <ele>734.0</ele>
      </trkpt>
      <trkpt lat="44.481209" lon="9.124792">
        <time>1970-01-01T00:00:00+00:00</time>
        <ele>733.0</ele>
      </trkpt>
      <trkpt lat="44.481455" lon="9.124789">
        <time>1970-01-01T00:00:00+00:00</time>
        <ele>729.0</ele>
      </trkpt>
      <trkpt lat="44.481606" lon="9.124843">
        <time>1970-01-01T00:00:00+00:00</time>
        <ele>727.0</ele>
      </trkpt>
      <trkpt lat="44.481762" lon="9.124869">
        <time>1970-01-01T00:00:00+00:00</time>
        <ele>725.0</ele>
      </trkpt>
      <trkpt lat="44.481835" lon="9.124908">
        <time>1970-01-01T00:00:00+00:00</time>
        <ele>724.0</ele>
      </trkpt>
      <trkpt lat="44.482159" lon="9.125185">
        <time>1970-01-01T00:00:00+00:00</time>
        <ele>713.0</ele>
      </trkpt>
      <trkpt lat="44.482322" lon="9.12539">
        <time>1970-01-01T00:00:00+00:00</time>
        <ele>707.0</ele>
      </trkpt>
      <trkpt lat="44.482384" lon="9.125498">
        <time>1970-01-01T00:00:00+00:00</time>
        <ele>702.0</ele>
      </trkpt>
      <trkpt lat="44.482421" lon="9.125498">
        <time>1970-01-01T00:00:00+00:00</time>
        <ele>701.0</ele>
      </trkpt>
      <trkpt lat="44.482442" lon="9.125455">
        <time>1970-01-01T00:00:00+00:00</time>
        <ele>702.0</ele>
      </trkpt>
      <trkpt lat="44.482436" lon="9.125421">
        <time>1970-01-01T00:00:00+00:00</time>
        <ele>703.0</ele>
      </trkpt>
      <trkpt lat="44.482323" lon="9.125203">
        <time>1970-01-01T00:00:00+00:00</time>
        <ele>709.0</ele>
      </trkpt>
      <trkpt lat="44.48222" lon="9.125048">
        <time>1970-01-01T00:00:00+00:00</time>
        <ele>713.0</ele>
      </trkpt>
      <trkpt lat="44.482072" lon="9.124907">
        <time>1970-01-01T00:00:00+00:00</time>
        <ele>718.0</ele>
      </trkpt>
      <trkpt lat="44.481989" lon="9.124689">
        <time>1970-01-01T00:00:00+00:00</time>
        <ele>718.0</ele>
      </trkpt>
      <trkpt lat="44.481921" lon="9.124616">
        <time>1970-01-01T00:00:00+00:00</time>
        <ele>719.0</ele>
      </trkpt>
      <trkpt lat="44.481607" lon="9.124373">
        <time>1970-01-01T00:00:00+00:00</time>
        <ele>717.0</ele>
      </trkpt>
      <trkpt lat="44.481397" lon="9.124069">
        <time>1970-01-01T00:00:00+00:00</time>
        <ele>715.0</ele>
      </trkpt>
      <trkpt lat="44.481373" lon="9.12382">
        <time>1970-01-01T00:00:00+00:00</time>
        <ele>713.0</ele>
      </trkpt>
      <trkpt lat="44.481538" lon="9.123479">
        <time>1970-01-01T00:00:00+00:00</time>
        <ele>703.0</ele>
      </trkpt>
      <trkpt lat="44.481532" lon="9.123047">
        <time>1970-01-01T00:00:00+00:00</time>
        <ele>703.0</ele>
      </trkpt>
      <trkpt lat="44.481397" lon="9.12235">
        <time>1970-01-01T00:00:00+00:00</time>
        <ele>705.0</ele>
      </trkpt>
      <trkpt lat="44.481395" lon="9.122225">
        <time>1970-01-01T00:00:00+00:00</time>
        <ele>702.0</ele>
      </trkpt>
      <trkpt lat="44.481372" lon="9.122083">
        <time>1970-01-01T00:00:00+00:00</time>
        <ele>698.0</ele>
      </trkpt>
      <trkpt lat="44.481314" lon="9.121969">
        <time>1970-01-01T00:00:00+00:00</time>
        <ele>697.0</ele>
      </trkpt>
      <trkpt lat="44.481086" lon="9.121771">
        <time>1970-01-01T00:00:00+00:00</time>
        <ele>695.0</ele>
      </trkpt>
      <trkpt lat="44.480857" lon="9.121726">
        <time>1970-01-01T00:00:00+00:00</time>
        <ele>699.0</ele>
      </trkpt>
      <trkpt lat="44.480774" lon="9.121683">
        <time>1970-01-01T00:00:00+00:00</time>
        <ele>700.0</ele>
      </trkpt>
      <trkpt lat="44.480765" lon="9.121622">
        <time>1970-01-01T00:00:00+00:00</time>
        <ele>698.0</ele>
      </trkpt>
      <trkpt lat="44.480799" lon="9.121481">
        <time>1970-01-01T00:00:00+00:00</time>
        <ele>692.0</ele>
      </trkpt>
      <trkpt lat="44.480765" lon="9.121453">
        <time>1970-01-01T00:00:00+00:00</time>
        <ele>693.0</ele>
      </trkpt>
      <trkpt lat="44.48073" lon="9.121358">
        <time>1970-01-01T00:00:00+00:00</time>
        <ele>691.0</ele>
      </trkpt>
      <trkpt lat="44.480731" lon="9.121297">
        <time>1970-01-01T00:00:00+00:00</time>
        <ele>691.0</ele>
      </trkpt>
      <trkpt lat="44.480755" lon="9.121244">
        <time>1970-01-01T00:00:00+00:00</time>
        <ele>690.0</ele>
      </trkpt>
      <trkpt lat="44.48106" lon="9.120987">
        <time>1970-01-01T00:00:00+00:00</time>
        <ele>676.0</ele>
      </trkpt>
      <trkpt lat="44.48127" lon="9.120871">
        <time>1970-01-01T00:00:00+00:00</time>
        <ele>671.0</ele>
      </trkpt>
      <trkpt lat="44.481435" lon="9.120745">
        <time>1970-01-01T00:00:00+00:00</time>
        <ele>668.0</ele>
      </trkpt>
      <trkpt lat="44.481475" lon="9.12063">
        <time>1970-01-01T00:00:00+00:00</time>
        <ele>669.0</ele>
      </trkpt>
      <trkpt lat="44.481452" lon="9.120481">
        <time>1970-01-01T00:00:00+00:00</time>
        <ele>670.0</ele>
      </trkpt>
      <trkpt lat="44.481235" lon="9.120137">
        <time>1970-01-01T00:00:00+00:00</time>
        <ele>683.0</ele>
      </trkpt>
      <trkpt lat="44.481018" lon="9.119866">
        <time>1970-01-01T00:00:00+00:00</time>
        <ele>686.0</ele>
      </trkpt>
      <trkpt lat="44.480929" lon="9.119802">
        <time>1970-01-01T00:00:00+00:00</time>
        <ele>687.0</ele>
      </trkpt>
      <trkpt lat="44.480771" lon="9.119688">
        <time>1970-01-01T00:00:00+00:00</time>
        <ele>689.0</ele>
      </trkpt>
      <trkpt lat="44.480883" lon="9.119406">
        <time>1970-01-01T00:00:00+00:00</time>
        <ele>681.0</ele>
      </trkpt>
    </trkseg>
  </trk>
</gpx>
